RH
96 93 89 88 85 83 81 79 77 75 71 72 72 71 68 67 70 73 74 74 73 72 67 64 62 60 57 56 56 57 58 59 61 63 65 65 64 61 59 59 60 63 66 66 65 64 62 60 59 58 58 58 58 59 60 62 64 66 67 73 79 83 84 85 87 88 87 85 86 90 98 90 84 81 82 92 97 99 98 99 98 97 99 99 100 99 98 98 98 98 97 99 99 99 97 98 99 100 100 95 96 98 100
96 93 89 85 84 83 82 80 76 72 67 62 61 64 72 73 77 79 76 73 71 69 65 62 60 58 56 55 55 56 56 57 58 60 62 63 61 59 57 58 61 64 66 66 66 64 61 59 57 57 57 57 57 58 60 61 61 59 58 66 74 80 84 85 85 85 84 83 85 90 98 90 84 83 86 91 95 96 96 97 97 96 96 98 99 99 99 99 99 100 100 100 100 100 99 100 100 99 97 94 94 96 98
97 93 89 84 82 81 78 72 68 65 66 70 75 80 83 83 83 82 77 73 69 65 62 61 59 57 56 56 56 56 57 58 58 59 60 61 60 58 56 57 60 64 66 67 66 64 60 56 55 55 55 56 56 58 59 61 58 54 48 56 65 74 83 83 83 82 83 82 83 86 94 89 87 87 88 88 90 93 94 93 92 91 92 97 99 100 100 100 100 100 100 100 100 100 100 99 98 96 92 91 91 93 95
97 93 88 83 79 75 69 66 68 73 80 85 88 88 87 87 84 80 78 75 70 65 61 59 58 58 57 57 58 58 59 60 61 62 62 62 61 58 56 56 58 62 67 69 69 66 63 57 55 54 54 55 55 56 58 60 59 53 43 50 60 73 83 85 85 84 82 83 82 83 90 90 91 90 87 85 86 88 91 88 87 87 88 94 98 100 100 100 100 100 100 99 98 98 99 97 92 88 87 86 87 89 92
96 92 86 80 75 70 65 69 76 84 89 92 93 90 84 85 83 81 82 80 74 67 63 60 59 58 58 58 59 59 61 62 64 65 65 64 62 60 57 56 58 62 68 71 71 68 63 57 55 55 55 54 54 54 55 58 58 55 45 50 63 78 86 84 84 85 84 83 82 83 86 86 91 94 88 89 90 90 88 84 84 87 91 93 95 98 100 99 100 100 100 98 96 96 97 95 92 89 87 87 85 84 87
96 91 82 75 71 70 70 79 85 90 93 92 91 89 85 88 87 86 87 83 76 70 65 62 60 59 59 59 59 60 62 63 64 66 67 66 64 62 59 58 61 65 72 73 71 66 61 57 56 56 55 54 53 52 52 55 56 54 45 48 62 78 85 82 83 85 84 82 83 85 85 82 88 94 92 91 90 89 87 83 83 86 92 94 96 97 98 98 99 99 99 98 96 94 94 94 93 91 90 90 87 84 81
95 88 77 72 72 77 83 89 92 94 92 89 87 86 86 86 86 87 88 83 77 70 66 63 61 60 59 58 58 59 61 61 63 66 67 67 66 64 62 60 63 67 72 71 69 64 60 57 56 55 54 53 51 50 49 51 53 52 45 47 59 74 83 82 84 85 85 81 81 83 86 84 86 90 94 92 89 87 86 86 84 84 90 94 96 97 97 98 96 95 95 94 93 92 92 93 92 91 91 91 89 87 84
94 86 75 74 79 87 93 94 94 92 89 88 87 86 88 87 87 87 86 82 76 71 67 63 61 60 59 63 61 58 59 59 61 63 66 66 66 65 63 61 62 64 66 67 66 63 59 57 55 54 52 51 50 49 49 50 50 48 41 44 57 72 82 81 83 85 86 82 79 80 84 87 87 87 90 91 90 88 87 85 84 84 87 94 96 97 97 96 95 93 92 91 91 91 91 91 91 91 90 89 89 89 89
93 84 76 77 84 92 95 96 94 93 92 90 87 84 85 86 87 86 84 79 75 71 67 64 62 62 62 62 59 57 57 57 59 62 65 66 66 66 65 63 61 59 59 61 62 62 59 57 55 53 51 50 50 51 52 53 52 47 36 41 56 72 83 81 82 84 86 82 80 80 83 85 87 89 87 88 89 88 85 81 79 81 85 89 93 95 95 93 91 90 90 89 88 89 90 90 89 89 89 88 86 85 86
91 83 78 80 86 94 98 97 95 91 90 87 84 82 82 84 85 84 81 76 73 70 67 66 64 62 60 56 55 54 56 57 59 63 66 67 67 67 66 64 61 58 55 56 57 59 58 57 55 53 52 51 51 52 55 57 56 50 35 40 55 71 82 82 83 84 84 80 81 83 83 85 88 89 85 85 86 85 84 83 83 83 83 86 89 91 91 90 88 87 87 86 86 87 87 87 86 86 86 85 85 84 83
88 83 80 82 88 95 99 98 94 90 86 84 82 81 81 84 83 81 77 74 72 70 67 66 64 61 58 55 54 55 57 59 62 65 67 68 68 67 66 64 60 57 54 53 54 56 57 56 55 54 53 52 51 52 57 59 59 52 34 39 54 70 79 82 83 83 81 83 85 85 82 86 89 90 91 86 84 84 86 87 86 85 85 89 90 90 89 88 86 83 82 81 82 83 83 83 83 84 83 82 83 84 81
83 81 81 82 88 95 99 98 94 89 84 83 82 82 82 83 81 79 75 73 72 71 68 67 64 60 57 56 56 58 60 62 64 66 68 68 68 67 66 63 60 57 54 54 55 57 56 54 53 52 51 50 50 51 58 61 60 51 30 37 54 72 83 84 84 84 80 89 91 89 85 90 91 92 93 90 88 87 91 90 89 89 90 91 91 89 87 86 83 80 78 76 77 77 79 78 80 82 80 80 80 80 79
80 80 81 82 86 92 97 97 95 91 86 84 83 83 83 83 81 78 74 73 73 72 69 68 65 61 58 58 59 61 62 64 66 67 67 67 66 65 63 61 58 56 54 55 56 56 54 52 49 48 48 48 49 51 58 62 61 51 26 35 54 74 84 84 84 84 81 87 90 91 88 93 96 97 94 91 92 94 96 93 91 90 89 88 89 88 86 85 82 78 76 75 75 74 75 75 78 79 79 78 79 79 75
77 79 80 81 84 89 94 97 96 93 89 86 85 84 84 83 80 77 74 74 74 74 71 69 67 65 62 61 61 62 63 65 66 66 66 65 64 62 60 58 55 54 54 55 54 52 51 48 46 45 45 47 50 53 59 63 61 49 22 35 56 75 82 83 83 82 82 85 88 89 88 92 95 97 94 93 95 97 96 92 91 90 89 88 88 87 86 84 83 81 78 78 76 75 75 77 80 82 82 81 82 82 77
75 76 77 79 82 85 91 95 96 94 89 88 87 86 85 82 79 76 74 75 75 75 72 71 69 67 64 62 61 62 63 65 65 65 63 62 60 58 56 54 53 52 52 52 50 48 46 44 43 43 44 47 51 56 61 63 58 44 20 40 62 78 82 82 82 82 85 85 85 85 84 89 92 94 94 93 95 96 94 93 91 90 89 88 87 86 86 84 83 81 80 79 79 79 77 80 83 84 85 85 84 83 81
72 72 74 77 78 81 85 91 93 93 88 89 89 88 85 80 77 75 74 75 75 75 73 71 70 67 64 61 60 60 62 63 63 62 60 58 56 55 53 52 50 48 46 45 44 42 41 41 41 42 43 46 51 57 62 63 53 38 21 47 68 81 82 82 81 81 83 85 84 83 82 84 86 88 91 92 94 94 92 93 91 89 87 87 86 85 85 82 80 78 77 77 78 79 78 80 82 84 85 85 84 84 84
69 69 71 74 75 76 79 83 88 90 86 88 89 88 84 79 75 73 74 75 75 75 73 71 69 66 63 59 58 57 59 59 59 58 56 54 53 52 52 51 48 44 41 41 40 38 37 38 39 40 42 45 51 57 62 62 49 33 25 55 73 80 80 84 83 81 79 82 83 82 81 84 85 85 87 91 93 93 91 91 89 87 85 85 83 82 80 78 76 75 74 74 75 77 77 79 81 83 84 85 85 85 84
67 68 69 71 72 73 74 76 81 83 82 84 84 84 81 77 74 72 72 73 74 74 73 71 68 65 61 57 54 53 54 54 54 53 52 51 51 52 52 49 45 41 40 39 37 36 36 37 37 38 40 45 51 57 63 61 43 28 32 61 76 81 82 85 85 83 82 82 81 80 81 86 87 87 87 91 91 91 89 88 87 85 83 82 80 78 77 74 73 72 72 72 74 76 77 78 80 82 83 84 84 84 83
65 67 68 71 72 72 72 72 73 75 74 76 77 78 77 75 73 71 71 71 71 71 71 69 66 62 59 56 56 56 56 54 52 50 50 51 51 51 50 45 42 40 39 38 36 35 35 36 37 38 39 45 52 58 64 57 37 25 39 65 78 83 84 85 85 85 85 84 81 80 83 86 88 89 89 89 89 87 86 85 84 83 81 80 77 75 75 72 70 69 69 70 72 75 77 77 78 80 82 82 83 83 83
65 66 68 71 72 72 71 70 70 71 71 71 73 76 78 77 74 71 70 68 67 67 68 67 63 60 58 60 63 64 62 59 55 51 48 48 48 48 45 42 40 39 37 36 35 35 35 36 36 37 39 46 54 61 65 51 33 26 46 68 78 81 82 83 83 84 87 86 84 83 86 87 88 88 89 88 86 85 84 83 81 80 78 77 75 73 72 70 69 68 67 67 69 73 76 76 77 79 80 81 82 82 82
67 64 65 69 71 72 71 72 73 75 77 75 76 79 81 79 75 71 68 66 64 64 65 64 60 57 58 62 64 64 62 59 56 52 47 44 43 42 41 40 39 37 35 35 34 34 35 35 35 36 40 48 57 64 68 44 29 30 52 70 78 81 82 82 82 83 86 87 87 87 89 89 89 88 87 86 84 82 80 80 78 77 75 75 74 73 70 69 68 68 68 68 71 74 76 78 78 79 81 81 81 81 81
70 64 60 63 67 70 71 75 80 84 86 84 83 83 81 76 71 67 66 64 61 60 61 59 56 53 54 57 58 58 56 54 52 49 45 42 41 40 40 39 37 35 35 34 34 34 33 33 33 36 41 50 57 64 67 39 29 36 59 74 80 82 83 83 83 83 83 86 86 87 88 88 87 86 85 83 81 79 78 77 76 75 73 73 72 71 68 68 67 68 68 70 73 76 77 79 79 80 81 81 81 81 81
71 67 62 59 61 64 69 76 83 88 89 89 87 84 83 76 70 65 63 60 58 56 57 55 51 48 48 50 50 50 49 47 46 44 43 41 41 40 39 38 36 34 34 34 34 33 33 30 32 36 42 50 57 61 62 34 30 43 67 79 84 85 84 85 84 83 84 86 87 87 87 86 85 83 82 80 78 77 76 75 74 72 70 70 70 70 69 68 68 68 69 72 75 77 78 79 80 81 81 81 81 81 81
71 70 69 64 59 59 65 73 80 84 85 84 83 83 89 82 75 67 61 58 55 53 53 50 47 43 43 43 43 43 42 41 41 40 40 40 39 39 38 37 35 34 33 33 33 33 32 27 30 36 42 51 57 60 60 31 31 49 75 83 87 87 85 86 85 86 87 88 87 86 85 84 82 81 78 77 76 75 73 72 71 70 67 69 69 69 68 68 69 70 71 74 76 77 79 80 80 81 81 80 80 80 80
70 71 73 70 65 59 60 72 77 79 82 78 77 80 89 85 79 72 63 62 59 55 51 47 43 41 41 40 39 38 38 37 37 37 37 37 38 37 37 35 34 33 33 33 33 32 29 24 28 37 43 52 57 58 55 28 31 51 78 85 87 87 85 85 87 88 88 88 86 84 83 81 80 78 76 76 75 73 70 68 68 67 66 66 67 68 67 68 69 70 72 75 76 78 79 79 80 80 80 80 80 80 80
67 68 72 73 70 65 60 73 78 80 84 78 74 75 85 82 79 74 67 67 64 58 51 45 42 40 39 37 36 35 34 34 35 35 35 36 36 35 35 33 32 32 32 32 32 30 27 25 29 36 43 51 56 55 48 26 30 50 78 84 87 87 85 84 86 88 88 87 85 83 81 78 77 75 73 72 70 68 65 64 63 63 64 66 67 68 68 68 68 69 70 73 75 77 78 79 79 80 80 80 80 80 79
63 65 68 70 71 69 65 73 77 81 85 81 73 70 80 78 76 73 69 67 65 60 53 47 43 40 38 35 33 33 33 33 34 35 36 36 35 34 33 32 31 31 31 32 31 29 26 28 31 36 41 50 54 53 45 27 30 49 75 83 87 88 87 86 85 85 86 85 83 81 78 76 74 71 68 67 65 63 61 60 60 62 65 67 67 68 68 69 70 70 70 72 75 77 78 77 78 79 79 79 79 79 79
61 63 65 66 68 69 69 71 74 78 81 81 73 67 75 73 72 70 68 66 62 58 54 49 44 40 37 34 33 32 32 33 34 35 37 37 36 33 32 31 30 31 31 31 30 28 27 30 32 35 39 48 53 53 48 30 32 48 71 80 85 88 88 87 86 85 84 83 81 78 76 74 70 67 65 62 60 60 59 60 62 64 65 67 68 70 70 70 70 71 73 74 75 76 76 77 77 78 77 78 78 78 79
62 62 62 63 65 67 69 69 71 73 75 78 72 67 70 70 69 67 66 64 60 56 52 48 43 39 36 35 33 32 32 33 34 36 38 38 38 36 33 31 30 30 30 31 30 29 28 30 31 33 37 46 52 55 53 35 36 50 68 76 82 86 87 86 85 83 82 80 78 76 74 72 69 66 64 61 59 59 60 63 64 66 67 69 69 70 72 73 73 73 74 75 76 76 77 77 76 76 77 77 77 77 79
63 62 61 62 63 65 67 68 69 70 71 74 72 68 64 68 68 66 65 63 60 56 51 47 43 39 36 35 34 33 33 34 35 37 39 40 41 41 38 33 30 29 30 30 30 30 29 29 30 31 34 43 50 54 55 38 40 52 66 73 78 81 84 83 82 81 79 78 76 74 72 71 69 67 65 64 62 62 63 66 67 69 71 72 73 74 75 75 75 75 74 75 76 76 76 77 76 76 77 78 78 79 79
65 63 61 61 61 63 65 67 68 69 69 72 72 70 63 66 67 66 65 64 61 57 52 47 43 39 37 36 35 34 34 34 35 37 39 41 43 44 41 34 30 29 29 29 29 29 29 29 29 30 32 40 48 53 56 42 43 54 66 72 75 77 80 80 79 78 77 76 75 74 73 71 69 68 66 66 65 65 67 69 71 73 74 75 75 75 75 75 75 75 74 75 75 75 77 76 76 76 78 78 77 77 79
65 64 62 61 61 61 63 65 66 67 68 70 72 71 66 65 66 67 66 65 62 58 53 48 44 41 38 38 37 36 34 34 36 38 40 42 45 45 42 35 31 29 29 29 29 29 28 28 28 29 30 37 44 51 55 46 45 52 66 73 75 76 77 77 76 76 75 74 73 73 72 71 70 68 66 66 67 68 70 72 74 75 75 75 75 74 74 74 75 74 73 73 73 74 75 75 76 76 77 77 78 78 79
64 64 63 62 61 61 62 64 65 66 66 68 70 72 71 67 66 67 67 66 64 60 55 50 46 42 40 39 39 38 35 34 36 38 41 42 44 45 42 35 31 29 28 29 29 28 26 26 27 28 29 33 41 48 53 49 45 47 63 73 76 77 77 75 75 74 73 72 71 71 71 69 68 67 66 67 68 70 72 74 75 75 74 73 72 72 72 72 72 73 72 73 72 72 72 74 74 75 75 76 76 76 77
63 63 63 62 61 61 61 62 64 65 65 66 69 71 72 69 67 67 67 66 65 61 57 52 47 44 42 41 40 39 36 34 36 39 41 41 42 44 43 36 31 28 28 29 29 28 26 25 26 28 29 31 36 43 49 50 46 45 55 70 76 78 77 76 74 73 71 70 69 68 68 67 67 66 66 68 70 73 74 74 74 73 72 71 70 70 70 71 72 74 74 74 73 73 72 73 73 73 73 73 73 73 74
63 63 62 62 61 61 61 62 63 64 64 65 67 69 71 70 68 67 67 67 66 63 58 53 49 45 42 41 40 39 36 35 36 38 42 41 41 41 43 38 33 29 29 29 28 28 27 24 25 28 28 29 33 38 44 48 48 46 46 63 74 78 78 76 75 73 71 69 67 66 66 66 66 66 68 70 72 74 75 74 74 72 70 69 67 67 68 69 71 73 74 75 75 75 74 74 73 72 72 71 70 69 70
63 62 62 61 61 61 61 61 63 64 64 64 66 68 70 70 68 67 67 67 66 64 60 54 49 45 42 41 40 39 36 35 36 38 42 41 40 40 40 39 34 30 29 28 28 27 27 24 25 27 28 28 30 34 40 45 48 48 43 53 65 75 79 77 75 73 71 69 67 65 64 64 65 67 69 71 73 74 74 73 72 71 69 67 66 65 65 67 69 71 74 75 75 75 75 74 73 71 69 70 69 67 67
63 62 61 61 61 60 60 61 62 63 63 63 65 66 69 69 68 67 66 66 66 64 61 55 50 45 42 41 40 39 37 36 37 39 41 40 39 38 38 38 35 33 31 29 28 27 28 25 26 27 28 28 29 31 36 41 45 47 45 45 53 65 76 77 76 74 72 70 67 65 64 64 64 66 68 70 72 73 73 72 70 69 67 66 66 65 64 65 66 68 72 73 74 74 74 74 73 71 69 68 69 68 66
63 62 61 61 61 60 60 60 61 62 62 63 64 66 68 68 68 67 66 66 66 65 62 56 50 45 42 41 40 39 38 38 38 39 40 39 37 36 36 36 35 33 33 30 28 27 28 26 27 27 28 27 28 29 32 37 41 44 45 41 42 50 65 70 73 73 71 70 68 66 64 62 62 63 66 68 69 70 71 70 69 68 66 66 65 65 64 64 65 66 68 70 71 72 72 72 73 72 70 68 68 69 67
63 62 62 62 61 60 59 59 60 61 62 62 63 65 67 68 68 67 66 66 66 64 62 56 50 45 42 41 40 40 39 39 39 40 40 39 37 35 35 36 35 33 34 31 29 28 27 27 27 28 28 27 27 28 30 34 38 40 41 39 36 38 47 56 61 65 66 66 66 65 63 61 59 59 61 64 66 68 69 69 68 67 66 65 64 64 64 63 64 64 65 67 68 69 69 70 71 71 71 70 69 69 67
65 63 62 62 62 61 60 59 59 60 61 61 62 63 66 67 67 67 66 66 65 64 61 57 51 46 42 41 41 40 40 40 40 41 41 39 37 35 35 36 35 34 34 32 30 29 28 27 28 29 28 28 28 28 29 32 34 36 37 37 35 34 35 41 46 51 56 59 61 62 61 58 56 55 56 59 62 64 66 66 66 66 65 64 63 62 62 62 61 61 62 64 65 66 66 67 67 68 69 69 68 67 65
66 64 63 63 62 62 60 59 59 59 60 61 61 62 65 66 66 66 66 66 65 63 61 57 52 48 44 42 42 41 40 40 41 41 41 39 37 36 36 36 36 35 35 33 31 30 28 27 28 29 29 29 28 28 28 30 31 33 33 34 35 35 35 37 39 41 45 51 56 58 58 56 54 52 51 53 56 58 59 61 61 61 60 60 59 59 58 58 58 58 58 60 62 63 65 65 65 65 66 66 66 65 64
68 66 65 64 63 63 62 60 59 59 60 61 61 62 64 65 66 66 66 65 64 63 60 58 54 51 47 45 44 43 42 41 40 40 40 38 37 36 36 36 36 36 36 34 33 32 30 28 28 29 29 29 29 28 28 29 29 30 30 31 33 36 37 40 41 42 42 45 50 54 55 54 52 50 48 48 48 49 50 51 52 53 53 53 53 52 50 51 51 52 52 54 57 60 62 63 63 63 64 63 63 63 62
70 68 66 65 64 64 63 61 60 60 60 61 61 61 63 64 65 65 65 65 63 62 60 58 56 53 51 49 47 46 44 41 40 40 40 38 37 36 36 36 36 36 36 35 35 34 33 29 28 29 29 29 29 29 29 29 28 28 28 29 31 33 37 41 44 45 45 44 45 48 51 51 50 47 44 42 41 39 39 40 42 44 45 45 44 43 42 43 44 45 47 50 52 55 58 60 62 62 62 63 62 61 61
71 70 68 66 65 64 63 62 61 60 60 61 61 61 62 64 64 65 64 63 62 61 59 59 57 54 52 51 50 48 45 42 41 40 40 38 37 36 36 36 36 36 36 35 35 35 34 30 28 28 29 29 29 29 29 29 28 27 27 27 28 30 34 39 43 46 47 45 44 44 45 47 46 44 41 37 34 32 30 31 33 35 37 36 35 35 34 33 34 37 41 45 48 50 53 56 59 61 62 62 62 61 62
72 71 70 68 66 65 64 63 61 60 60 61 61 62 62 63 64 64 63 62 61 59 58 59 57 55 53 52 50 49 47 44 42 41 40 39 38 37 36 35 35 36 36 35 36 35 34 31 29 29 29 29 29 30 30 30 29 28 27 26 26 28 31 36 40 43 45 45 45 44 42 42 41 40 37 34 30 27 24 23 25 27 28 28 27 26 25 23 23 26 30 37 41 45 49 52 55 58 60 61 62 62 63
73 73 72 70 68 66 64 63 62 61 60 60 61 62 62 63 64 64 63 61 60 58 58 58 58 56 54 52 50 49 47 44 42 41 41 40 39 37 36 35 35 35 35 35 35 35 34 32 30 29 29 30 30 30 30 30 29 28 28 27 26 26 28 32 37 40 41 43 45 45 43 40 37 35 33 30 26 22 19 17 18 19 20 20 20 19 18 17 16 17 19 24 30 36 42 46 50 54 57 59 61 62 63
75 74 73 72 70 67 65 63 62 61 60 61 61 62 63 64 64 64 63 61 59 58 57 58 57 56 54 52 50 48 46 44 42 41 41 40 39 38 37 35 35 35 35 35 35 34 34 33 32 31 30 30 30 30 30 30 30 29 29 28 27 26 26 29 32 35 37 39 42 44 43 39 35 32 29 25 21 18 15 14 15 15 16 16 16 16 16 16 16 16 16 16 18 24 31 40 46 50 53 55 58 60 61
76 75 75 73 72 69 66 64 62 61 61 61 62 62 63 64 64 64 62 60 59 58 58 58 57 56 54 53 51 48 45 43 42 41 40 40 39 38 36 35 35 35 34 34 34 34 33 33 33 32 32 31 30 30 30 30 30 30 30 29 28 27 27 27 28 30 32 35 38 40 41 38 34 29 25 21 17 15 14 14 14 15 15 16 16 16 17 17 17 17 17 16 15 15 20 31 40 47 51 53 55 57 58
78 77 76 75 73 71 68 65 63 61 61 61 62 63 64 64 64 63 62 60 59 58 58 58 57 56 55 54 52 49 45 43 41 41 40 40 39 38 36 35 35 34 34 33 33 33 33 33 33 33 33 33 32 31 30 30 30 31 31 30 29 29 29 28 27 27 27 30 32 35 38 36 32 27 21 18 17 16 17 17 17 16 16 17 17 18 18 18 18 18 18 17 15 14 13 26 37 45 49 51 53 54 55
79 79 77 76 74 72 69 66 64 62 61 62 63 64 65 65 64 63 61 60 58 58 58 59 58 56 55 54 53 51 47 43 41 40 39 40 39 39 37 36 35 35 34 34 33 33 33 33 33 34 34 34 33 32 31 30 30 31 31 31 31 30 30 29 28 26 25 25 27 30 33 33 30 26 21 20 21 21 22 22 21 20 19 18 19 19 19 19 19 19 19 17 16 14 11 19 27 37 45 48 50 52 53
80 79 79 78 76 74 71 68 65 63 62 62 64 65 66 66 65 64 61 59 58 58 58 60 58 56 54 54 54 52 49 45 42 40 39 40 40 40 40 38 37 36 36 35 34 34 33 33 33 34 34 35 34 33 32 30 30 31 32 32 32 31 31 31 30 28 25 24 25 26 28 29 28 25 24 25 26 26 27 26 26 24 23 21 21 20 20 20 20 20 19 18 16 14 12 12 16 23 34 41 45 48 51
80 80 80 79 78 76 73 70 67 64 62 63 64 66 68 68 67 65 63 60 58 57 58 60 59 57 54 53 53 53 50 46 42 40 40 41 41 41 41 40 40 41 45 39 37 36 34 34 34 34 34 35 35 34 33 31 31 32 33 33 32 32 31 31 31 30 27 25 25 25 25 26 25 25 26 28 28 28 28 29 28 27 26 24 23 22 21 21 20 20 20 18 16 14 13 12 12 13 19 28 36 44 50
80 80 80 80 79 77 75 72 69 66 63 64 65 67 69 69 69 67 65 61 59 57 57 60 60 59 55 54 53 53 52 48 44 41 41 41 42 43 44 45 46 46 44 39 39 39 35 36 35 35 34 34 35 34 33 32 31 32 33 33 33 32 31 31 31 31 30 27 26 26 26 26 25 25 27 28 28 28 27 28 28 28 27 26 25 24 23 22 21 21 20 19 17 15 13 13 12 12 12 21 33 46 56
79 80 80 80 79 78 76 74 71 68 65 64 66 68 70 71 70 69 67 64 61 58 57 59 60 60 58 56 54 54 53 51 46 42 41 42 43 45 48 49 51 51 49 44 43 42 42 40 38 37 36 35 34 34 34 32 32 32 33 34 34 33 31 31 31 31 31 29 28 27 28 27 26 25 27 28 28 27 26 26 27 28 28 28 27 26 25 23 22 22 21 19 17 16 14 14 14 13 14 33 50 61 67
79 79 79 79 79 78 77 75 72 70 67 65 66 68 70 71 71 71 69 67 63 60 57 58 59 60 60 58 56 55 54 53 49 45 41 42 44 45 47 50 55 58 56 52 52 53 53 44 40 38 37 35 34 34 33 33 32 32 33 34 34 33 32 31 31 31 31 31 30 29 29 29 28 27 27 28 28 28 26 26 26 27 28 29 29 28 27 25 24 23 21 20 18 18 18 15 14 18 32 54 66 71 71
77 78 78 78 78 77 76 75 74 72 69 67 67 68 70 71 72 72 71 69 66 63 59 58 59 60 61 60 58 57 56 55 52 48 44 43 44 45 46 48 50 52 55 55 55 56 59 43 37 37 36 35 35 34 33 33 32 32 33 34 34 33 32 31 31 31 31 31 31 30 30 30 29 28 28 29 29 28 27 27 27 27 28 28 29 29 28 27 25 24 23 22 23 23 23 19 22 31 50 62 67 68 68
76 76 76 76 76 76 76 75 74 73 72 70 69 69 71 72 72 73 72 71 68 65 62 59 58 59 60 60 59 59 58 57 54 50 46 45 45 46 47 48 49 50 51 53 54 55 53 40 35 35 35 35 34 34 33 33 33 32 32 33 33 33 33 32 31 31 31 31 31 30 30 30 30 30 29 29 29 29 28 28 28 28 28 28 28 28 27 26 26 27 28 28 30 31 28 26 33 45 55 60 62 63 62
74 75 75 75 75 75 75 74 74 74 74 73 72 71 72 73 73 73 73 72 70 68 65 61 59 59 59 60 60 59 59 58 55 52 48 46 46 47 48 49 49 50 50 50 49 47 45 39 37 37 37 35 34 34 33 33 33 33 32 32 33 33 33 32 31 31 31 31 31 30 30 30 30 30 30 30 30 29 29 29 28 28 28 28 27 27 27 29 32 35 37 36 37 37 33 31 39 48 53 55 56 57 57
72 73 73 73 73 73 73 73 74 74 74 74 74 73 74 74 74 74 74 73 71 69 67 64 62 60 59 60 61 61 60 58 55 52 49 48 47 47 48 49 50 51 51 50 47 43 39 38 37 38 39 34 33 34 34 33 33 33 32 32 32 32 33 32 32 32 31 31 31 30 29 30 30 30 31 31 30 30 29 29 29 29 28 28 28 30 32 36 40 44 44 42 43 42 36 34 39 44 48 50 52 53 54
70 71 72 72 72 72 72 72 72 73 73 74 74 75 75 76 76 76 75 74 73 71 69 67 65 63 61 63 63 62 61 60 57 54 50 49 49 48 48 49 50 51 51 51 50 47 39 36 37 39 43 38 35 34 35 34 33 33 33 32 32 32 33 33 33 32 32 32 31 30 29 30 30 31 31 31 31 30 29 29 29 29 29 29 30 33 38 42 46 49 50 48 47 45 41 37 38 42 44 47 50 51 52
69 70 70 71 71 71 71 71 71 72 72 73 74 75 75 77 77 78 77 76 75 73 71 69 67 66 66 68 68 65 63 62 61 59 53 50 50 50 49 50 50 51 52 51 51 52 50 41 37 38 43 45 41 37 35 36 35 34 33 33 32 32 33 33 33 33 32 32 31 30 29 30 30 31 31 31 31 30 30 30 30 30 30 30 32 36 41 45 49 52 53 53 51 49 46 40 38 40 43 45 47 49 50
Wind_Speed
12 12 12 12 11 10 9 9 10 10 11 12 12 12 12 12 12 12 12 11 11 11 11 12 13 13 13 13 13 13 13 13 12 12 12 11 11 11 11 11 11 10 10 10 11 12 12 12 12 12 11 11 11 10 10 10 10 10 10 11 12 12 11 10 10 10 11 10 9 9 10 11 11 10 10 11 14 16 14 15 15 16 19 19 18 16 13 11 9 8 8 10 14 16 16 16 18 20 19 17 16 17 18
11 11 11 11 11 11 10 10 11 12 13 13 13 14 13 12 12 11 11 10 10 10 11 12 12 12 12 13 12 12 12 11 11 11 10 10 10 11 11 11 11 11 10 11 12 13 13 13 12 11 11 11 11 10 9 9 9 9 9 11 12 12 12 11 11 10 10 9 8 9 11 12 11 10 10 12 15 16 15 15 15 16 18 20 20 18 16 17 17 18 19 21 22 21 19 19 19 19 18 16 15 16 17
11 11 11 11 11 11 11 12 13 14 15 15 15 14 13 12 11 10 9 9 9 9 10 10 11 11 12 12 12 11 11 11 10 10 9 9 9 10 10 11 11 11 10 11 12 13 14 13 12 11 11 11 11 10 9 9 8 8 9 10 11 11 11 11 10 10 10 9 8 8 10 11 10 10 10 12 13 14 15 14 14 14 15 18 20 21 22 22 23 23 24 25 24 22 20 18 18 17 16 15 14 15 15
11 10 10 10 11 12 12 14 14 15 15 14 14 12 11 10 9 8 8 8 8 8 9 9 10 10 11 11 11 10 10 10 10 9 9 9 8 9 9 10 10 10 10 10 11 11 12 11 11 10 11 11 10 10 9 9 9 8 9 10 11 11 10 10 10 10 10 9 8 8 9 9 9 10 10 11 12 13 13 12 12 12 12 15 18 21 22 22 22 22 22 22 22 21 20 18 17 16 15 15 15 14 14
10 10 9 10 12 13 14 14 15 14 14 13 12 11 9 9 8 8 7 7 7 8 8 9 9 9 10 10 10 10 10 9 9 9 9 8 8 8 8 8 8 8 8 9 10 11 11 10 10 10 10 10 10 9 8 8 8 8 8 9 10 10 9 8 9 10 10 9 8 7 7 7 8 10 11 11 12 12 12 11 11 11 11 12 15 18 19 20 20 20 20 19 19 19 20 19 18 17 17 16 16 15 14
10 10 9 11 12 13 14 14 14 13 13 12 10 9 9 8 8 8 7 7 7 8 8 8 8 8 9 9 9 9 9 9 9 9 8 8 7 7 7 7 7 7 7 8 10 11 12 10 10 10 10 10 9 8 8 7 7 7 8 9 10 9 8 8 8 9 9 8 8 8 7 7 8 10 12 11 11 11 11 11 10 10 10 11 12 14 16 18 18 19 18 18 18 17 17 17 17 17 17 16 16 15 14
11 10 10 12 13 13 13 13 12 12 11 10 9 9 8 8 7 7 7 6 7 7 8 8 8 8 8 8 8 8 8 8 8 8 8 7 7 7 7 7 7 7 7 8 11 12 13 11 10 9 9 9 9 8 7 7 7 7 7 8 9 9 8 7 8 9 9 8 7 7 7 8 9 9 10 10 10 10 10 10 10 9 9 11 12 13 14 16 17 17 17 17 16 15 15 15 15 15 15 15 15 15 15
10 10 10 12 13 13 12 11 11 10 10 9 8 8 8 7 7 6 6 6 6 7 7 8 8 7 7 7 7 7 7 7 7 7 7 7 7 7 7 7 7 7 7 9 11 12 13 11 10 9 9 8 8 8 7 6 6 5 6 7 9 9 8 7 8 9 9 8 7 6 6 7 8 8 7 8 9 9 9 10 9 9 9 10 11 13 14 15 15 15 15 15 15 14 14 14 13 13 13 14 14 14 14
10 10 10 12 12 12 11 10 10 10 9 9 8 7 7 6 6 5 5 5 6 7 7 8 8 7 7 7 7 7 7 7 7 7 7 7 7 7 7 7 7 7 7 8 10 12 12 11 9 8 8 7 8 7 7 6 5 5 5 6 8 9 8 7 8 8 8 7 6 5 6 6 6 6 6 7 8 9 9 9 9 9 8 9 10 12 14 14 13 13 13 14 14 13 13 13 13 13 12 12 12 12 13
9 8 9 11 12 11 10 9 9 9 8 8 7 7 6 6 5 4 4 5 6 6 7 7 7 7 6 6 7 7 7 6 7 7 7 7 7 7 6 6 6 7 7 8 10 11 12 11 9 7 7 6 7 7 6 5 4 4 5 6 7 8 8 7 7 7 7 5 5 5 5 5 5 6 5 6 7 9 9 9 10 10 9 8 9 10 12 12 12 12 13 13 13 13 12 12 12 12 11 11 11 11 11
8 8 8 10 11 11 10 9 8 8 7 7 6 6 6 5 4 4 4 4 5 6 7 7 7 6 6 6 7 7 7 7 7 7 7 7 7 6 6 6 7 7 8 8 9 10 10 9 7 6 6 6 6 6 5 4 3 4 4 5 7 7 7 7 7 6 5 5 4 4 5 5 5 6 7 7 8 8 9 10 11 11 10 10 11 11 11 12 11 11 11 11 11 11 11 11 11 11 10 10 10 10 10
7 7 8 9 11 11 10 9 8 7 6 6 6 5 5 4 3 3 3 4 5 6 7 7 6 6 6 6 7 7 7 7 7 7 7 7 6 6 6 6 7 7 8 9 9 9 9 8 6 5 5 5 5 4 3 2 2 3 4 5 6 7 7 7 7 6 4 5 6 6 6 6 6 8 9 9 9 9 10 12 12 12 12 12 11 11 12 12 11 11 11 10 10 10 10 10 10 10 10 10 10 10 9
7 8 9 9 10 11 10 9 8 7 6 6 5 5 4 4 3 2 2 3 5 6 6 6 6 6 6 7 7 7 7 7 7 7 7 6 6 6 6 6 7 7 8 8 8 8 8 6 5 4 5 4 4 3 2 1 2 2 3 4 6 6 6 6 6 6 4 5 6 6 7 7 8 10 10 10 9 11 13 14 13 12 12 11 11 12 11 11 11 11 10 10 10 9 9 9 9 9 9 9 9 9 9
8 9 9 10 10 10 9 9 8 7 6 6 5 4 4 3 3 2 2 3 5 6 6 6 6 6 6 6 7 7 7 7 7 7 6 6 6 6 6 6 6 6 7 7 7 7 6 4 3 4 4 4 3 2 1 1 2 2 2 4 6 6 5 6 6 5 5 5 6 6 7 8 9 10 11 10 11 12 14 13 12 12 12 11 11 11 11 11 11 10 10 10 10 9 9 9 9 9 9 9 9 9 9
9 10 10 10 10 9 9 9 8 7 6 6 5 4 4 3 2 2 2 3 5 5 6 6 6 6 6 7 7 7 7 7 6 6 6 6 6 5 5 6 6 6 6 6 6 6 4 3 3 3 3 3 2 1 0 1 1 2 2 5 6 6 5 5 5 5 5 5 6 6 7 8 8 9 10 10 11 13 12 12 12 11 11 11 10 10 10 10 10 10 9 9 9 9 9 9 9 9 9 9 9 9 9
9 10 10 10 10 9 9 9 8 7 6 5 5 4 3 3 2 2 2 3 4 5 5 5 6 6 7 7 7 7 7 6 6 6 5 5 5 5 5 5 5 5 5 6 6 5 3 2 3 3 3 2 1 0 1 1 1 1 2 5 6 5 4 5 5 4 5 6 6 6 6 7 7 8 9 10 11 12 11 12 11 10 9 9 9 9 9 9 8 8 8 8 8 8 8 8 9 9 9 9 9 9 10
9 10 10 10 10 9 9 9 8 7 6 5 4 4 3 2 2 2 2 3 4 5 5 5 6 6 7 7 7 7 6 6 6 5 5 4 4 4 4 4 4 5 5 5 5 4 2 2 2 2 2 1 0 1 2 1 1 1 4 6 6 5 4 6 6 5 4 4 6 6 6 7 7 8 9 9 10 11 11 10 10 8 7 7 7 7 7 6 6 7 7 7 7 8 8 8 8 9 9 9 9 9 9
9 10 11 11 10 9 9 9 8 7 6 5 4 4 3 2 2 2 2 3 3 4 5 5 6 6 7 7 7 7 6 6 5 4 4 3 3 3 3 4 4 5 5 5 4 3 2 1 1 2 2 1 1 2 2 2 1 1 5 7 6 4 5 6 7 6 5 5 6 7 7 8 8 9 9 10 10 9 9 9 8 7 6 6 6 6 6 5 5 6 6 6 7 7 7 7 8 8 9 9 9 9 9
8 9 11 11 10 10 9 9 9 8 6 5 4 4 3 3 3 2 2 2 3 4 5 5 6 7 8 8 7 6 5 4 4 3 3 2 2 2 2 3 4 4 4 3 2 1 1 1 1 2 2 1 1 2 2 2 1 3 6 7 5 4 5 6 7 6 6 7 7 8 8 8 9 9 9 10 9 9 8 8 7 7 6 6 5 5 5 5 5 5 5 6 6 7 7 7 7 8 8 9 9 9 9
7 8 10 10 10 10 9 9 9 8 6 5 4 4 4 4 4 3 3 3 3 4 5 6 7 8 8 8 7 6 3 2 2 2 2 2 1 2 2 3 3 3 1 0 0 1 1 1 2 2 2 0 2 2 1 1 1 4 7 7 5 5 5 6 6 6 7 8 9 9 9 9 9 9 9 9 9 8 8 7 7 6 6 5 5 5 5 5 5 5 5 6 6 7 7 7 8 8 8 9 9 9 9
6 7 9 10 10 10 10 9 8 7 6 5 4 4 5 5 5 5 4 4 4 5 6 7 8 9 9 9 8 6 4 2 2 1 0 0 1 2 2 3 2 1 1 1 2 2 2 2 2 3 2 1 2 2 1 1 2 5 8 7 5 5 6 7 6 6 7 8 10 10 10 10 10 9 9 8 8 7 7 6 6 5 5 5 5 5 5 5 6 6 6 6 7 7 7 8 8 8 8 9 9 9 9
6 6 8 9 10 10 10 9 8 7 6 5 4 4 5 5 5 5 5 5 5 5 7 8 9 9 9 8 8 7 6 5 4 2 1 0 0 1 1 1 1 2 2 2 2 3 3 2 3 3 2 2 3 2 1 1 3 6 8 7 6 5 7 7 7 7 7 8 10 10 10 10 9 8 8 7 7 6 6 5 5 5 4 4 5 5 5 5 6 6 7 7 7 8 8 8 8 8 9 9 9 9 9
6 6 7 8 10 11 11 9 8 7 6 5 5 6 6 5 5 5 6 6 6 6 7 9 9 9 8 7 6 6 7 6 6 4 2 2 2 2 1 2 2 2 2 2 3 3 3 3 3 4 2 2 3 3 1 2 4 7 8 8 6 6 7 8 8 8 8 9 10 10 9 9 8 7 7 6 5 5 5 4 4 4 4 4 5 5 5 6 6 7 7 7 8 8 8 8 8 9 9 9 9 9 9
6 7 7 8 9 11 11 10 9 8 7 6 6 7 7 6 5 5 6 6 7 7 8 9 10 9 7 6 5 6 7 7 7 5 4 4 4 4 3 3 2 2 3 3 4 4 3 3 3 4 2 3 4 3 2 2 5 8 9 8 8 7 8 9 9 9 10 10 10 9 9 8 7 7 6 5 5 4 4 4 4 4 4 4 5 6 6 6 6 7 7 7 8 8 8 8 8 8 9 9 9 9 9
8 8 8 8 9 10 11 10 10 9 8 7 8 9 10 8 6 5 5 6 7 7 8 9 9 8 7 6 6 7 8 8 7 6 5 5 5 5 4 4 3 4 4 4 4 4 3 2 4 4 2 4 4 3 2 3 6 9 9 9 8 8 9 9 10 10 10 10 9 9 8 7 7 6 5 5 5 4 3 3 3 4 4 4 5 5 6 6 7 7 7 7 8 8 8 8 8 9 8 9 9 9 9
10 10 10 10 10 10 11 11 11 10 10 8 8 10 11 10 8 6 5 7 7 7 7 8 8 7 7 7 7 8 9 8 8 7 6 6 5 5 4 4 4 5 5 5 5 4 3 2 4 5 3 4 4 4 3 4 6 9 10 10 9 8 9 9 10 10 10 9 9 8 7 7 6 6 5 4 4 3 3 3 3 4 4 5 5 5 6 6 7 7 7 7 8 8 8 8 8 8 8 8 8 8 8
12 12 11 11 11 11 11 12 12 11 12 10 9 10 12 12 10 8 7 8 9 9 7 7 7 8 8 8 8 9 10 9 8 7 7 6 6 5 5 5 5 5 5 5 5 4 2 3 4 4 3 4 4 4 3 5 7 9 10 10 10 9 9 9 10 10 9 9 9 8 7 7 6 5 4 4 4 3 3 3 3 4 5 5 5 6 6 6 6 6 6 7 7 8 8 8 8 8 8 8 8 8 8
12 13 12 12 12 12 12 13 13 13 13 12 11 10 12 12 11 10 9 10 11 10 9 8 8 9 9 9 9 10 10 10 9 8 7 7 7 7 6 5 5 5 5 5 5 4 3 4 5 5 4 5 5 4 4 6 8 10 11 11 11 11 10 9 9 9 9 9 8 8 7 7 6 5 4 3 3 3 3 4 4 4 5 5 6 6 6 6 6 6 6 7 7 7 7 8 8 8 8 8 8 8 8
13 13 13 13 13 13 13 13 13 14 14 13 12 12 12 12 12 11 11 11 12 11 10 10 10 10 11 10 10 10 10 10 9 8 8 8 8 8 7 6 6 6 6 5 5 4 4 5 6 5 5 5 5 5 4 6 8 10 11 12 12 12 11 10 10 9 9 9 8 8 7 6 6 5 4 3 3 3 4 4 5 5 5 6 6 6 6 6 6 6 6 7 7 7 7 7 7 7 8 8 8 8 8
12 13 13 13 13 13 13 13 14 14 14 14 13 13 13 13 12 11 12 12 12 12 12 11 12 12 12 12 11 10 10 10 10 9 8 8 8 8 7 6 6 6 6 6 5 5 5 6 6 6 6 6 6 6 5 6 9 10 11 12 13 13 12 12 11 10 9 9 8 8 7 6 6 5 5 4 4 4 4 5 5 6 6 6 6 6 6 6 6 6 6 7 7 7 7 7 7 7 7 7 7 7 8
13 13 13 13 14 14 14 14 14 14 14 14 14 14 14 14 12 12 12 12 13 13 13 13 13 13 13 13 12 10 10 10 10 10 9 8 8 7 7 7 7 7 7 7 7 7 7 7 7 7 7 6 6 6 6 6 9 11 12 12 13 13 13 13 12 11 10 9 8 8 7 7 6 6 5 5 5 5 5 5 6 6 6 6 6 6 6 6 6 6 6 6 6 6 6 6 6 7 7 7 7 7 7
13 13 14 14 14 14 14 14 14 15 14 14 14 14 14 15 13 12 12 12 13 13 13 13 13 13 13 13 12 11 10 11 11 11 9 8 8 7 7 7 7 7 8 8 9 9 8 8 8 8 7 7 7 7 6 7 9 11 12 13 13 14 14 14 13 12 11 10 9 8 7 7 6 6 6 6 6 6 6 6 6 7 6 6 6 6 6 6 6 6 6 6 6 6 6 6 6 6 6 6 7 7 7
15 14 14 14 15 15 14 15 15 15 15 15 14 14 14 15 14 13 12 12 12 13 13 13 13 13 13 13 12 12 12 12 12 11 10 9 8 8 8 8 8 8 9 9 9 9 9 9 9 8 8 7 7 7 7 7 8 11 13 13 14 14 14 14 14 13 12 11 10 8 7 7 6 6 6 6 6 6 7 7 7 7 7 6 6 6 6 6 5 5 5 5 5 5 5 5 5 5 5 6 6 6 6
16 16 15 15 15 15 15 15 16 16 15 15 15 14 14 15 15 14 13 12 12 12 13 13 13 13 13 13 13 13 13 13 13 12 10 9 9 8 8 9 9 9 9 9 9 9 9 9 9 9 9 8 7 7 7 7 8 10 13 14 14 14 14 14 14 14 13 12 11 9 8 7 7 6 6 6 7 7 7 7 7 7 7 6 6 6 6 5 5 5 5 5 5 4 4 4 4 5 5 5 5 5 6
17 17 16 16 16 16 16 16 16 16 16 16 15 15 15 15 15 15 14 13 13 12 13 13 13 13 13 13 14 14 14 13 13 12 11 9 9 9 9 10 10 10 10 9 9 8 8 9 9 10 9 9 8 7 7 8 8 10 12 14 14 14 14 14 14 14 14 13 12 10 9 8 7 7 7 7 7 8 8 8 7 7 7 6 6 6 6 6 5 5 5 5 5 4 4 4 4 4 4 4 4 5 5
17 17 17 17 17 17 17 16 16 16 16 16 16 16 15 15 15 15 15 14 14 13 13 14 14 14 14 14 15 15 15 14 13 12 11 10 9 10 10 10 11 11 11 10 9 8 8 9 9 10 10 9 9 8 8 9 9 10 11 13 14 15 15 14 14 14 14 14 13 11 10 9 8 8 8 8 8 8 8 8 8 7 7 7 6 6 6 6 6 5 5 5 5 4 4 4 4 4 3 3 3 4 4
17 17 17 17 17 17 17 17 17 16 16 16 16 16 16 16 16 16 16 15 15 14 14 15 15 15 16 16 16 16 16 15 14 13 12 10 10 11 11 11 11 12 12 10 10 9 9 9 9 10 10 10 10 9 9 9 10 10 10 11 13 15 15 15 15 15 14 14 14 13 12 10 9 9 9 9 9 9 9 8 8 8 7 7 7 6 6 6 6 6 6 5 5 5 4 4 3 3 3 3 3 3 3
17 17 18 18 17 17 17 17 17 17 17 17 17 17 17 17 16 16 17 16 16 16 15 16 16 16 16 17 16 16 16 16 15 14 13 12 12 12 12 11 11 12 12 11 11 11 10 9 9 10 11 11 11 11 10 10 10 10 9 10 11 14 15 16 15 15 15 15 14 14 13 12 11 10 10 10 10 9 9 9 9 8 8 7 7 7 6 6 6 6 6 5 5 5 4 4 3 3 3 3 2 2 3
17 17 18 18 18 18 18 17 17 17 17 17 17 17 17 17 17 17 17 17 17 17 16 17 17 16 17 17 17 16 16 16 16 15 15 13 13 13 13 12 12 12 12 11 12 12 12 10 10 11 11 12 12 12 11 11 10 9 9 9 10 12 14 16 16 16 15 15 15 15 14 14 13 12 11 11 10 10 10 9 9 9 8 8 7 7 7 6 6 6 6 5 5 5 4 4 3 3 3 3 2 2 2
17 18 18 18 18 18 18 17 17 17 17 18 18 18 18 17 17 17 18 18 18 17 17 17 17 17 17 17 17 16 16 16 17 16 15 15 14 14 14 13 13 13 12 12 13 13 12 11 11 11 12 13 13 13 13 12 11 10 9 9 9 10 12 14 15 16 16 16 16 16 15 15 14 13 13 12 12 11 11 11 10 10 9 8 8 7 7 7 6 6 6 5 5 4 4 4 3 3 3 3 2 2 1
18 18 18 18 18 18 18 17 17 18 18 18 18 18 18 18 18 18 18 18 18 18 18 18 18 19 18 18 18 17 16 16 17 17 16 16 15 15 14 14 14 14 13 13 13 13 13 12 12 12 13 13 14 14 14 14 13 11 10 9 9 9 10 12 14 15 15 15 16 16 16 16 15 15 14 14 13 13 13 13 12 11 10 9 8 8 7 7 6 6 5 5 5 4 4 4 3 3 3 3 2 2 1
18 18 18 18 18 18 18 18 18 18 18 18 19 18 18 18 18 18 18 18 18 18 18 19 19 20 20 19 19 18 17 17 17 17 17 16 16 15 15 15 15 15 14 14 14 14 13 13 13 13 13 14 14 15 15 15 14 13 12 11 10 9 10 11 13 13 14 15 16 16 17 17 17 16 16 16 15 15 14 14 13 13 11 10 9 8 7 7 6 6 5 5 5 4 4 4 3 3 3 3 2 2 1
19 18 18 18 18 18 18 18 18 18 19 19 19 19 19 19 19 19 19 19 19 19 19 19 20 20 20 20 20 20 19 18 18 18 17 16 16 15 15 15 16 15 15 15 15 15 14 13 14 14 14 14 15 16 16 15 15 15 14 13 12 11 11 12 13 13 13 14 15 16 17 18 18 18 18 17 16 15 15 14 14 13 12 11 10 9 8 7 7 6 6 5 5 4 4 3 3 3 3 2 2 2 2
20 19 19 19 18 18 18 19 19 19 19 19 19 20 20 20 19 19 19 20 20 20 20 20 21 21 21 20 21 21 21 20 19 19 18 17 16 16 16 16 16 16 16 16 15 15 14 14 15 15 15 15 16 16 16 16 16 16 16 15 14 14 14 14 13 13 12 13 14 15 17 18 19 19 19 18 17 15 14 14 14 14 13 12 11 9 9 8 8 7 6 6 5 5 4 3 3 3 3 2 2 2 2
20 20 20 19 19 19 19 19 19 20 20 20 20 20 20 20 20 20 20 20 20 20 20 21 22 22 21 21 21 22 22 21 20 19 18 18 17 16 16 17 17 16 16 16 16 15 14 14 15 16 17 17 17 17 17 16 16 16 17 17 17 16 16 16 15 13 12 13 13 15 16 17 18 19 19 18 17 15 14 13 13 13 13 13 12 11 10 9 8 8 7 6 6 5 4 3 3 3 2 2 2 2 2
21 21 21 20 20 20 20 20 20 21 21 21 21 21 21 21 21 21 21 21 21 21 21 21 22 22 22 21 20 21 21 21 19 19 19 18 17 17 17 17 17 16 16 16 16 15 15 15 16 17 18 18 18 18 17 17 16 17 17 18 18 18 19 18 17 16 14 13 14 14 15 16 17 18 18 17 16 15 14 13 13 13 13 13 12 11 10 9 8 8 8 7 6 6 5 4 3 3 3 2 2 2 2
21 21 21 21 21 21 20 20 21 21 22 22 22 22 22 22 22 22 22 22 22 22 22 22 22 22 22 21 20 19 20 19 19 18 18 18 18 17 17 17 16 16 16 16 16 16 16 16 17 18 19 19 19 19 18 17 17 17 18 19 19 20 20 20 20 19 17 16 15 15 15 15 16 16 17 17 16 16 15 14 14 14 13 13 12 11 10 9 8 8 7 7 7 6 6 5 4 4 3 3 3 3 3
22 21 21 21 21 21 21 21 21 22 23 23 23 23 23 23 23 23 23 23 23 23 22 22 22 23 23 22 20 19 19 19 19 19 18 18 17 16 16 16 16 15 15 15 16 16 16 17 18 18 19 20 20 20 19 18 18 18 19 19 20 20 21 21 22 21 20 19 17 16 16 15 15 15 16 16 16 16 15 15 14 14 14 13 12 11 10 9 8 8 7 7 7 6 6 6 5 5 4 4 3 3 3
22 22 21 21 21 21 21 22 22 23 23 24 24 24 24 23 23 23 23 23 23 23 23 22 22 23 23 23 22 21 20 19 19 19 19 17 15 14 15 15 15 14 15 15 15 16 16 18 18 19 20 20 21 21 20 19 19 19 20 20 20 20 21 21 22 22 22 21 20 18 17 16 16 15 15 15 15 15 15 14 14 14 14 13 12 11 10 10 9 8 8 7 6 6 6 6 6 6 5 5 4 4 4
22 22 21 21 21 21 22 22 22 23 24 24 25 24 24 23 22 22 22 22 22 22 22 22 22 23 24 24 23 22 21 20 20 20 20 18 15 12 9 11 13 13 14 14 15 15 16 18 19 20 20 21 21 21 21 20 20 20 21 21 21 21 20 21 21 22 23 23 22 20 19 18 16 15 14 13 13 13 13 14 14 14 14 14 13 12 11 10 10 9 8 7 6 6 6 6 6 7 6 6 6 5 5
22 22 22 21 21 21 22 22 22 23 24 24 24 24 23 23 22 22 22 22 23 23 22 21 21 22 24 24 24 24 24 23 23 22 17 18 18 15 9 9 9 10 12 14 15 16 17 18 19 21 21 21 21 21 21 21 22 22 22 22 22 21 21 20 21 21 22 23 23 22 21 19 17 15 14 12 12 12 12 13 13 14 14 14 13 13 12 11 10 9 8 7 7 6 6 6 7 7 7 7 6 6 5
23 23 23 22 22 21 21 22 22 23 23 23 24 24 23 23 23 23 23 23 23 24 24 22 20 20 22 23 24 24 25 25 26 26 21 20 20 20 17 12 6 2 3 7 11 14 17 19 21 22 22 22 22 22 22 23 23 23 24 24 23 22 21 20 20 21 22 22 23 23 22 20 19 16 15 13 13 13 13 13 13 13 13 13 13 13 13 12 11 9 9 8 7 7 7 7 7 7 7 7 6 5 5
23 23 23 23 22 22 21 21 22 23 23 23 24 24 24 24 24 24 24 24 24 24 25 24 22 20 20 21 22 23 25 27 29 28 26 23 19 17 15 8 5 4 3 3 2 5 12 17 20 22 24 24 23 23 23 24 24 24 24 24 24 23 21 20 20 20 21 22 23 23 22 21 20 18 17 16 15 15 15 14 14 13 13 13 13 13 13 12 11 10 9 9 8 8 7 7 7 7 7 6 6 5 4
24 24 24 24 23 22 22 22 23 23 23 23 24 24 25 25 25 25 25 24 24 25 25 26 25 22 20 20 21 22 24 28 30 30 28 26 21 13 7 4 4 5 5 4 3 3 5 9 14 19 24 25 25 24 24 24 25 25 24 24 24 23 22 21 20 20 21 22 23 22 22 22 21 20 19 18 17 17 16 15 14 13 12 12 13 13 13 12 11 10 10 9 9 8 8 7 7 6 6 6 5 5 5
25 25 25 25 24 24 23 23 23 23 24 24 24 25 25 26 26 26 25 25 25 25 25 25 25 25 23 22 22 22 23 27 30 30 30 29 27 20 9 4 2 3 4 4 4 4 4 6 10 16 19 23 24 24 25 25 25 25 25 24 24 23 22 21 21 21 22 22 22 22 22 22 21 21 21 20 19 18 17 16 15 14 13 12 12 13 13 12 11 11 11 10 10 9 8 7 6 6 7 7 6 6 6
25 25 25 25 25 25 24 23 23 24 24 24 24 25 25 26 26 26 26 26 26 26 26 25 26 26 25 24 23 22 22 25 28 31 32 31 31 29 23 12 5 3 2 3 5 5 2 8 7 5 12 18 22 23 24 25 25 25 25 24 24 23 23 22 22 22 22 22 22 22 21 21 22 22 22 22 21 19 18 17 17 16 14 14 14 14 13 13 12 11 11 10 9 8 7 7 7 7 8 8 8 7 7
26 25 25 26 26 25 24 24 23 23 24 24 25 25 25 25 25 25 25 25 26 26 27 26 26 27 28 26 24 22 22 22 26 30 33 33 33 32 28 24 16 9 7 4 4 3 4 11 8 1 5 13 19 22 22 23 25 25 25 24 24 23 23 22 22 22 23 22 22 21 21 21 21 22 23 23 22 20 19 18 18 17 16 15 15 15 14 13 12 11 11 10 9 8 7 7 8 9 9 9 8 8 7
25 25 25 25 25 25 25 24 23 23 23 24 24 25 25 24 24 24 24 25 25 26 26 27 26 27 28 27 25 23 22 21 23 27 31 32 33 32 31 28 25 21 17 10 6 4 5 5 4 3 2 5 12 19 20 21 22 24 25 24 24 23 23 23 22 23 23 23 22 21 20 20 21 22 23 24 23 22 20 19 18 17 16 16 15 14 13 12 11 11 11 10 9 8 8 9 9 9 9 9 8 8 7
25 25 25 25 25 25 24 24 23 23 23 23 24 24 24 24 24 24 24 24 24 24 25 26 27 27 27 26 25 23 22 22 22 23 25 26 29 31 32 31 27 23 20 17 13 8 5 4 3 3 4 2 4 10 16 18 20 22 23 24 24 24 23 23 23 23 23 23 22 21 20 21 21 22 22 23 23 22 21 20 19 18 17 16 15 13 12 12 11 12 11 11 10 9 9 9 9 9 9 9 8 8 7
24 24 24 24 24 24 24 24 24 24 23 23 23 24 24 25 25 25 24 25 24 24 24 26 27 27 26 25 24 24 23 23 22 21 21 18 21 27 32 32 29 27 24 21 18 15 10 7 5 4 3 4 3 3 7 13 18 20 21 22 23 23 24 24 24 23 23 23 22 21 20 21 21 21 22 22 22 22 21 20 19 18 17 16 15 14 14 13 13 13 13 12 11 11 11 10 10 10 9 9 8 8 7
23 23 23 23 24 24 24 24 24 24 24 24 23 24 25 25 25 25 24 24 24 25 25 26 27 28 27 25 24 24 24 23 21 20 20 18 18 22 28 30 30 29 27 24 23 21 19 14 11 8 4 3 4 4 2 5 10 16 18 20 21 22 23 24 23 23 22 21 21 21 21 21 21 21 21 21 21 22 21 20 19 18 17 16 15 15 15 15 15 15 14 13 12 12 11 11 11 11 10 9 9 8 7
Wind_Direction
109 110 113 116 116 112 105 99 96 96 99 104 107 107 102 96 94 94 97 98 98 98 97 95 96 97 100 101 102 102 102 101 101 100 100 97 96 96 98 101 102 99 91 78 65 59 58 65 76 84 84 83 82 81 80 79 79 79 79 81 80 75 72 69 68 67 69 68 65 66 70 63 53 43 42 55 71 77 73 62 55 52 54 61 66 67 65 63 67 76 86 89 90 91 88 79 74 74 73 70 65 63 67
110 108 110 111 111 108 103 101 99 100 101 102 102 100 97 95 96 99 101 103 102 99 95 94 96 99 101 103 103 103 102 101 101 100 99 97 95 94 97 100 100 96 86 73 64 60 62 70 81 86 83 83 83 82 81 81 80 81 83 86 84 79 74 72 72 73 73 72 70 66 66 62 57 55 59 63 69 72 70 61 55 54 59 65 69 71 72 72 73 75 79 82 84 85 83 77 71 69 70 70 66 62 62
109 107 108 107 106 104 104 104 103 102 100 99 97 97 98 101 102 102 101 101 99 96 94 94 96 99 101 102 102 102 101 100 100 100 99 97 94 94 98 101 101 97 86 75 67 64 67 76 83 85 83 84 83 83 82 83 81 81 84 88 87 82 75 73 74 76 76 77 76 72 68 65 65 67 69 63 64 67 68 63 57 55 60 68 73 75 75 74 72 71 72 75 77 78 76 73 69 67 66 68 68 66 64
111 109 109 106 105 105 107 107 105 102 98 97 97 100 103 106 104 100 98 96 94 93 94 96 97 100 101 101 101 101 99 99 98 99 99 98 96 95 99 103 104 99 89 77 68 63 63 76 84 85 83 83 82 80 80 82 81 80 82 87 88 83 77 75 76 78 79 79 80 79 74 73 75 76 73 64 62 65 69 68 61 54 55 64 71 74 73 72 70 69 68 70 72 72 71 71 69 66 64 65 67 68 69
116 114 111 108 108 109 109 108 105 101 98 98 101 105 108 106 101 97 96 93 89 89 92 96 99 100 101 101 101 100 98 97 98 98 99 99 98 98 100 104 104 100 89 76 64 60 63 80 88 87 84 81 79 78 78 81 81 79 80 86 88 84 77 76 79 81 81 78 78 79 76 73 81 86 80 71 68 68 70 70 67 63 60 60 66 71 73 72 70 70 69 69 69 69 69 69 68 66 64 63 63 66 70
121 118 115 112 111 111 110 107 103 101 101 104 108 111 110 105 100 99 96 90 85 83 88 95 100 101 102 103 102 100 98 97 97 98 99 100 100 100 101 103 103 98 87 71 60 59 66 82 91 89 84 80 77 76 77 80 81 78 78 85 87 85 78 79 82 82 79 75 73 73 70 66 75 84 84 77 73 72 71 74 75 74 70 65 66 70 72 72 71 70 70 69 68 67 67 67 67 66 64 63 61 61 64
124 122 118 115 114 112 109 106 104 104 106 112 116 116 113 109 106 104 99 88 80 80 86 94 99 102 104 104 103 101 99 98 97 99 100 101 101 101 101 102 100 94 83 69 63 64 71 82 89 88 83 80 77 75 75 80 82 80 78 85 89 86 78 78 81 82 79 75 71 68 64 63 68 75 78 77 75 74 73 77 82 85 80 75 73 72 72 71 70 70 70 69 67 65 65 66 66 66 64 63 62 60 60
126 125 122 119 116 114 110 109 109 112 115 119 121 120 115 113 112 109 100 88 79 79 87 94 99 103 106 106 105 104 101 99 98 99 101 102 102 102 100 99 97 91 82 73 70 72 76 78 81 83 81 79 76 74 73 78 80 79 79 89 91 87 79 78 82 83 80 79 75 70 65 66 68 70 71 75 76 76 76 80 86 91 89 82 78 76 74 72 70 70 69 70 69 67 66 65 65 65 64 64 63 62 61
131 130 126 123 120 116 114 115 117 121 124 125 125 124 118 117 115 111 102 89 81 82 89 95 101 104 107 109 109 108 105 102 100 100 102 102 103 102 100 97 94 89 85 81 79 79 77 73 72 74 76 75 73 70 68 71 72 72 78 93 95 89 80 82 85 84 82 80 78 75 74 74 78 79 77 78 80 82 83 85 90 95 96 90 83 79 77 76 74 71 70 70 70 69 68 67 66 65 65 64 63 62 63
138 135 132 128 124 121 120 122 127 130 133 133 132 129 125 125 124 118 106 93 87 88 94 99 103 105 108 110 111 110 108 105 104 104 104 104 104 103 101 97 93 89 87 88 86 82 75 68 64 65 68 70 70 68 64 65 65 66 77 98 100 92 82 83 86 85 82 78 79 81 82 80 84 90 91 88 89 90 90 92 95 98 100 98 90 84 81 80 78 76 73 71 70 69 68 67 66 65 65 64 63 63 62
146 142 137 134 129 126 127 130 135 138 139 140 138 137 136 137 136 129 113 99 94 96 100 104 106 107 107 109 111 113 112 109 107 107 107 107 107 106 103 98 92 89 89 90 87 80 72 66 61 60 62 66 70 70 64 65 63 65 78 104 106 96 85 86 88 86 80 76 77 82 83 79 89 99 98 97 98 99 99 101 101 102 101 97 91 86 82 80 78 75 73 71 69 67 65 63 62 62 62 61 62 62 60
154 147 144 141 137 134 135 139 143 145 144 146 147 148 150 152 151 141 121 105 103 105 108 109 109 106 106 107 112 114 115 114 113 113 113 113 112 110 105 99 94 91 89 88 82 75 67 62 59 58 56 58 65 70 66 63 56 58 77 112 114 100 86 91 93 89 81 77 75 72 75 80 95 104 100 97 100 104 105 103 103 102 99 94 88 84 81 78 75 72 69 67 66 65 63 61 60 60 59 58 58 58 58
159 153 151 149 145 142 142 145 149 151 152 154 157 159 162 165 166 157 130 115 113 113 114 114 111 106 105 108 113 117 119 120 120 121 120 119 117 112 107 101 96 92 89 82 73 64 56 54 56 57 52 49 54 62 61 47 32 44 76 123 120 103 87 95 97 91 82 77 73 69 69 81 93 99 99 99 102 105 103 101 100 100 98 93 87 83 80 76 72 68 65 62 61 61 60 60 60 59 58 58 57 57 57
164 160 159 157 153 150 149 152 154 155 157 159 163 166 170 174 176 164 138 123 121 121 121 119 113 109 107 110 115 120 124 126 127 127 126 124 119 114 108 100 95 90 85 75 63 53 47 44 50 55 53 48 50 53 32 353 16 36 86 132 124 106 91 99 100 93 85 80 75 71 70 82 90 94 98 101 103 102 100 101 101 99 96 92 87 83 79 74 70 65 61 59 58 58 58 59 61 62 61 60 60 59 59
170 168 166 164 162 160 158 159 159 159 160 161 164 167 171 176 176 164 141 129 129 129 128 124 119 114 113 115 119 125 129 131 132 131 129 125 120 113 105 96 90 86 80 70 58 48 41 37 43 51 54 53 56 55 304 313 7 33 114 136 124 106 97 105 106 100 96 90 84 79 80 89 93 94 96 102 102 100 99 99 100 97 93 90 87 83 79 75 69 64 60 58 58 59 59 60 62 63 64 63 63 62 61
176 173 171 170 171 170 168 166 165 165 166 164 166 171 176 176 174 160 141 134 135 136 135 130 125 120 119 121 124 129 134 136 135 134 131 127 121 113 102 90 84 81 77 67 57 47 39 35 43 49 52 56 64 223 265 295 349 33 139 138 124 106 105 113 116 111 100 97 94 94 97 101 103 102 102 105 104 102 99 96 96 96 94 89 86 83 78 74 68 62 58 57 57 59 60 62 64 65 65 65 64 64 64
177 175 175 176 179 180 179 176 174 174 175 173 175 181 189 189 182 167 149 141 142 143 141 136 131 127 126 127 129 133 136 138 138 136 133 129 121 110 95 82 77 76 72 64 56 49 42 40 52 56 50 50 252 244 260 299 345 79 150 139 124 108 111 119 121 120 115 108 105 105 108 110 112 112 112 109 104 100 97 94 93 95 94 89 85 80 73 68 63 59 57 56 57 58 61 64 66 68 67 67 67 66 66
175 176 178 181 185 188 189 187 185 184 185 184 188 198 210 213 209 191 167 155 153 151 149 143 137 133 132 131 132 134 135 136 138 137 134 129 122 107 88 80 74 69 63 55 51 50 45 45 65 71 58 43 260 252 267 309 342 141 154 141 125 111 119 123 124 123 123 120 115 112 116 116 115 115 116 111 105 100 98 95 93 93 92 88 82 75 66 60 56 55 57 58 59 62 63 65 68 70 70 69 68 67 66
169 175 180 184 189 193 196 195 193 193 193 191 195 206 220 228 227 215 196 177 167 161 156 148 143 139 137 135 133 130 127 129 134 137 136 131 119 101 88 84 75 63 53 44 43 53 58 74 93 88 71 45 254 252 269 323 14 154 156 143 128 118 125 128 128 125 124 123 122 122 125 124 120 117 115 111 107 104 100 97 93 90 88 83 78 70 61 55 52 54 58 61 63 65 68 68 69 72 72 71 69 68 67
165 174 182 187 192 195 198 198 198 198 198 195 197 209 222 229 229 223 213 200 184 171 163 155 148 144 141 138 134 130 128 132 140 138 132 128 119 107 98 90 80 69 63 71 165 162 155 143 122 106 86 159 241 246 269 356 118 154 156 144 133 129 133 134 136 133 126 126 127 128 129 126 123 120 114 110 108 104 101 97 92 87 82 77 70 64 59 56 56 57 60 65 68 70 72 73 73 73 73 72 71 69 68
172 179 185 191 194 196 198 199 198 200 203 204 208 218 223 224 222 219 214 207 195 181 169 159 153 148 144 139 136 139 156 194 224 232 333 74 98 102 97 96 105 132 160 190 206 207 203 187 147 124 108 206 233 241 262 67 136 153 154 145 139 140 143 143 144 140 132 130 130 130 129 126 123 119 115 112 109 107 104 98 93 86 78 72 68 66 60 60 59 60 63 70 74 76 76 76 75 74 74 73 72 70 69
190 191 192 195 196 197 198 197 198 201 207 213 218 220 218 214 210 207 207 206 199 187 174 164 157 152 147 141 139 148 169 198 216 228 263 327 53 100 105 129 163 177 173 203 223 227 225 211 168 143 130 213 232 233 235 130 145 153 153 144 140 143 147 148 148 148 146 139 135 133 131 128 125 121 118 114 112 110 105 99 92 85 77 73 72 68 63 64 66 67 69 74 78 79 78 77 76 75 74 74 72 70 69
203 203 202 200 198 197 198 197 199 204 209 211 210 208 210 208 199 194 197 200 196 187 177 168 162 156 149 143 144 157 175 195 204 206 205 196 199 204 193 198 201 187 176 209 226 236 239 223 177 152 148 215 229 227 214 153 153 156 153 143 137 140 146 147 150 153 154 145 138 135 133 131 128 125 121 119 115 111 105 99 92 86 79 78 77 75 72 71 72 73 74 78 80 81 80 78 77 76 74 73 71 70 69
200 201 206 205 200 197 196 198 203 209 210 207 195 193 202 211 204 190 189 193 191 183 178 173 167 160 152 153 159 170 185 195 199 198 196 193 200 208 209 210 203 189 187 207 224 239 250 228 174 157 173 222 228 226 210 164 160 161 157 145 137 140 146 145 146 148 148 144 140 138 136 134 131 129 127 123 118 112 106 101 95 91 87 85 85 82 80 78 77 77 78 80 82 82 81 78 77 75 74 71 70 68 68
190 195 203 206 203 198 195 199 207 212 211 203 188 184 195 211 215 201 188 188 187 183 179 177 171 164 163 171 179 186 193 196 196 194 194 196 202 207 205 201 198 196 197 207 221 238 255 222 169 160 188 225 231 230 214 174 168 167 163 150 142 142 148 147 145 144 144 144 143 143 140 138 136 133 130 124 120 116 111 107 101 98 95 93 90 88 84 83 80 79 79 82 83 83 81 78 76 74 72 71 69 68 67
188 194 201 204 205 201 196 199 206 212 208 204 189 182 189 205 214 208 191 185 190 194 186 180 173 170 177 184 188 192 195 195 193 192 193 195 199 202 199 197 199 201 204 210 221 234 244 192 160 161 194 227 235 234 214 183 175 174 170 159 149 146 151 152 149 147 146 145 145 145 146 145 140 135 134 128 124 120 117 112 107 103 101 97 94 91 89 87 85 83 82 83 84 83 81 79 76 74 72 70 69 67 66
189 194 200 203 205 204 200 200 204 207 205 206 197 185 186 199 208 207 194 187 194 201 197 186 179 181 189 190 192 195 197 194 191 191 193 193 192 192 194 198 201 204 207 214 223 228 213 169 155 162 197 223 233 231 210 187 181 180 178 168 158 152 153 155 154 152 149 149 147 146 147 145 143 142 142 137 131 125 119 116 112 109 106 101 98 95 93 91 89 88 87 87 87 85 82 80 77 74 72 70 69 68 67
193 194 198 202 205 205 203 201 203 205 204 207 204 193 186 196 204 205 197 191 194 200 200 192 188 191 196 194 195 197 198 195 192 192 196 196 193 190 189 196 202 204 208 216 222 217 191 167 159 167 196 216 227 226 210 190 186 186 186 179 168 160 157 156 156 155 152 152 151 150 149 148 150 151 147 144 135 128 123 119 116 113 110 107 103 100 97 95 92 90 90 91 91 89 85 81 79 75 72 71 69 67 67
197 197 198 201 204 206 205 203 203 204 204 206 207 202 192 194 200 204 200 195 195 196 197 195 194 196 198 197 197 199 201 197 195 196 200 202 202 198 193 196 201 206 208 213 214 204 185 171 165 173 193 210 220 224 214 195 190 191 191 189 181 172 165 161 158 156 155 155 154 154 154 153 153 152 148 146 140 132 127 124 122 118 116 111 108 105 102 100 97 94 92 93 93 91 87 84 80 76 73 71 70 69 69
202 201 200 201 204 206 205 204 204 204 205 207 209 207 200 195 197 202 202 199 197 195 195 195 196 197 198 197 197 199 202 200 197 198 203 207 209 208 201 197 200 206 206 206 202 194 185 176 172 178 192 206 217 221 218 200 194 194 195 197 194 187 178 171 166 163 161 159 158 157 156 155 154 151 146 142 139 135 133 130 128 124 119 116 113 110 107 104 101 98 96 95 93 92 89 86 82 78 75 73 71 70 70
205 205 204 204 206 207 207 205 205 205 207 209 210 210 206 200 198 202 205 204 201 198 196 196 197 198 198 197 197 199 203 202 199 198 203 207 212 210 203 197 199 204 204 203 198 192 186 181 179 182 190 204 214 219 218 204 198 198 199 200 201 199 193 185 178 173 169 166 163 161 160 158 156 152 148 145 142 140 138 136 132 128 124 120 116 113 110 107 106 104 101 99 96 93 91 87 83 79 77 75 73 72 73
208 208 208 207 208 210 210 208 207 207 208 209 210 211 210 205 201 202 207 207 205 202 199 199 199 199 199 198 198 200 205 205 202 199 203 208 211 210 202 195 197 203 205 204 201 198 193 187 184 185 188 201 212 218 218 209 203 202 202 203 205 206 204 200 193 187 181 176 172 169 165 163 160 156 152 149 147 145 144 140 136 132 128 124 120 115 112 111 109 108 106 104 101 98 95 90 86 82 78 76 75 75 75
210 211 211 210 211 212 212 211 210 209 209 209 210 210 211 208 205 203 206 209 209 206 203 202 203 203 201 199 198 200 206 207 204 202 204 209 212 210 203 196 197 202 207 207 207 207 204 195 189 186 188 198 210 219 220 216 208 205 205 206 207 209 210 209 206 200 194 187 182 177 172 169 166 163 159 154 152 149 148 145 141 137 133 128 124 119 115 113 112 112 111 109 107 103 99 96 91 85 81 78 77 77 78
210 211 212 212 212 212 213 213 212 211 211 210 210 210 210 210 208 206 207 210 210 209 205 205 205 205 202 199 198 200 205 207 206 204 204 210 215 214 208 198 197 202 208 210 214 216 215 203 193 187 188 195 208 219 220 220 213 208 206 207 209 211 212 213 213 210 205 199 193 187 180 177 173 169 164 160 156 153 150 149 146 143 139 134 128 124 121 118 116 115 114 113 111 108 104 99 94 88 83 80 78 79 79
211 212 213 214 213 214 214 215 214 212 211 212 212 211 211 210 209 208 208 209 210 209 206 205 205 205 202 198 197 200 204 206 207 206 206 211 216 216 212 202 199 202 208 212 216 220 220 207 195 189 190 193 203 215 220 219 214 210 208 208 209 211 213 215 216 215 212 208 203 198 191 185 179 173 169 164 160 156 154 151 148 145 141 139 135 130 126 123 120 118 117 116 114 112 108 104 98 92 87 82 79 79 80
213 213 214 215 215 215 215 216 215 213 212 212 213 212 211 211 210 209 209 210 209 208 205 204 204 204 201 198 198 201 203 205 206 206 206 210 214 217 214 207 203 205 210 211 213 217 218 208 197 191 192 193 198 207 214 215 215 213 209 209 210 211 213 215 216 217 216 214 211 206 201 194 185 178 173 169 165 162 158 156 152 149 146 142 139 136 132 127 124 122 119 119 118 117 113 110 105 99 94 87 84 82 82
215 214 215 215 216 216 216 217 216 214 213 213 213 213 212 211 211 210 209 210 209 207 204 203 203 203 201 200 200 202 203 204 204 205 205 206 212 215 214 210 208 209 212 210 209 212 216 208 198 192 193 194 195 200 208 213 215 216 213 212 212 213 213 214 215 217 218 217 216 213 208 201 193 184 178 173 170 167 164 161 158 154 150 146 142 139 136 131 128 125 122 122 121 121 119 117 114 110 105 98 91 87 87
217 216 216 216 216 217 218 218 217 216 214 213 214 213 212 211 211 210 210 210 209 207 204 202 202 203 202 202 203 205 206 205 205 205 204 204 208 213 212 210 210 213 214 209 207 210 213 208 200 195 196 196 196 198 205 212 216 219 220 218 217 216 215 215 215 217 219 220 219 218 214 209 201 192 184 179 174 171 168 165 162 159 155 150 146 142 138 135 132 128 126 124 123 123 123 121 119 117 115 112 106 98 92
218 218 217 217 217 218 219 219 218 217 215 214 214 214 213 211 211 211 210 210 209 207 205 202 201 201 202 202 204 207 209 209 209 209 208 206 208 212 212 210 211 214 215 210 208 211 213 207 200 199 199 199 198 199 205 210 216 221 224 224 222 219 218 217 218 218 219 220 221 220 218 215 209 201 192 184 178 174 169 166 164 161 157 153 149 144 141 137 134 131 128 126 124 124 125 125 123 122 121 119 115 107 99
219 219 219 218 218 219 219 220 219 218 216 214 214 214 213 211 210 211 211 210 209 207 205 203 201 201 202 202 204 207 211 213 212 212 211 209 211 213 214 212 212 214 215 212 211 214 214 207 201 201 203 202 201 202 206 209 213 218 223 226 224 220 218 219 220 220 219 219 219 219 218 216 213 207 200 192 185 179 174 170 167 164 160 156 152 147 143 140 138 135 132 129 127 126 127 129 128 127 126 126 123 119 113
220 221 221 221 220 220 220 220 220 219 216 214 214 214 214 212 211 211 211 210 208 207 207 206 204 203 203 204 205 206 211 213 214 213 212 210 212 215 215 213 213 214 214 212 214 217 216 207 203 203 206 205 203 205 209 211 210 211 217 221 220 217 215 217 220 221 219 218 217 217 216 215 213 210 205 200 194 189 185 181 177 173 169 164 160 156 152 150 147 143 139 135 132 129 128 130 134 136 136 134 135 133 133
220 222 223 223 223 222 221 221 220 219 217 214 214 214 214 213 213 212 211 209 208 207 208 210 210 209 208 208 207 208 210 212 213 212 210 210 212 215 215 214 213 213 214 214 216 219 218 210 204 204 207 207 206 208 211 213 210 207 209 212 212 210 210 214 217 220 220 218 216 215 214 213 212 211 210 207 205 202 199 195 192 188 184 179 175 172 168 165 161 157 152 146 141 136 134 134 137 142 142 144 143 145 152
220 221 223 225 224 223 222 221 220 219 218 215 214 214 214 213 213 213 212 210 209 209 210 212 213 213 213 211 210 209 209 210 211 210 208 208 210 213 214 213 213 212 213 215 218 221 221 214 206 204 207 209 209 210 213 213 211 207 206 206 205 204 205 210 215 218 219 219 217 215 214 214 214 214 215 215 215 214 212 209 206 202 198 195 192 189 186 182 178 172 165 160 155 149 144 141 143 147 152 152 154 160 167
221 221 223 225 226 225 223 221 220 220 219 216 215 214 214 214 213 212 213 212 211 211 212 213 214 214 213 212 210 208 207 208 209 208 206 205 208 211 213 213 212 212 213 215 218 222 223 217 210 206 207 209 211 212 213 213 211 208 208 206 203 202 202 206 210 215 218 219 218 217 216 216 216 217 219 221 222 221 220 219 216 214 210 207 206 204 202 198 193 185 178 172 167 163 159 156 154 156 161 163 164 170 177
221 222 223 225 226 226 224 222 221 220 219 217 215 214 214 213 212 212 213 213 213 212 213 214 214 214 213 212 211 209 208 208 208 206 204 203 206 209 212 213 213 212 212 215 218 222 222 219 213 209 208 210 212 213 214 214 212 211 210 208 206 204 203 203 204 207 212 217 219 219 217 218 218 220 222 223 224 224 224 223 221 220 218 216 215 214 214 211 205 197 190 184 179 176 175 173 173 175 176 178 182 186 191
221 222 223 224 225 225 225 223 221 220 219 218 216 214 213 212 212 212 212 213 213 213 214 214 213 212 212 213 213 212 210 210 209 206 203 202 204 208 211 212 212 212 212 214 217 220 220 219 215 212 211 212 213 214 214 214 213 213 212 211 210 209 207 205 202 202 204 211 217 220 219 219 220 222 223 223 224 224 224 223 221 220 220 220 220 220 219 216 211 206 201 198 194 190 187 187 189 194 197 199 201 207 211
221 222 223 224 225 225 225 223 221 220 219 218 216 214 213 212 212 212 212 212 213 213 214 214 212 210 210 211 213 213 211 209 207 204 202 202 203 207 210 210 210 211 212 214 216 217 216 215 215 214 214 214 215 215 214 214 214 214 214 213 213 213 211 210 207 204 203 207 214 219 221 221 221 222 222 223 223 223 223 221 219 217 217 218 219 220 219 216 213 211 209 208 205 202 199 197 199 203 210 215 219 223 227
222 223 223 224 224 225 225 223 222 221 219 218 217 215 214 213 213 212 212 213 213 213 214 214 212 209 207 208 210 211 209 207 205 202 198 197 201 206 207 206 206 207 210 213 215 215 215 214 214 216 217 217 218 217 215 214 214 215 215 215 214 215 216 215 212 210 207 207 211 217 222 222 222 221 221 221 221 222 222 220 217 215 214 215 216 217 217 215 214 214 215 215 214 211 207 205 205 208 214 221 227 232 236
222 223 223 224 224 225 225 224 223 221 220 219 218 217 216 215 215 215 214 215 215 214 214 214 213 209 206 206 207 207 206 204 203 200 194 192 195 200 201 200 201 203 207 211 213 215 215 216 216 218 218 219 220 219 217 214 213 215 216 215 215 216 217 217 216 215 213 211 212 215 220 223 223 222 220 219 220 221 220 218 215 213 212 213 214 215 216 217 217 218 220 221 222 220 215 212 211 213 216 222 227 232 237
222 223 224 224 225 225 225 224 223 222 221 220 219 218 217 217 217 217 217 217 217 215 214 214 214 211 206 206 206 205 203 201 197 193 188 189 190 190 192 196 200 205 209 213 215 216 218 219 220 220 221 221 222 221 217 214 213 215 216 215 215 216 217 218 218 217 216 214 214 215 218 221 223 222 220 219 219 221 221 218 216 214 214 214 215 217 218 220 221 223 224 229 232 232 228 223 218 217 219 223 226 229 233
221 222 224 224 225 225 225 225 224 223 222 221 220 219 218 218 218 218 218 218 217 216 213 212 212 212 210 209 208 206 202 199 193 188 186 194 196 193 187 187 197 209 218 220 220 220 221 222 224 224 223 223 223 221 218 214 213 214 215 214 214 215 216 217 217 216 216 215 215 215 217 219 219 218 216 215 216 219 221 221 219 217 216 217 218 220 222 223 224 226 229 235 240 244 242 236 229 225 223 223 225 226 227
221 222 223 224 225 226 226 226 225 224 223 221 219 218 218 218 219 219 220 219 218 217 213 211 209 210 211 212 212 210 205 200 196 192 192 197 200 199 194 185 182 204 214 221 225 226 223 224 225 225 223 222 221 220 217 213 212 213 215 214 213 214 215 215 215 215 215 215 215 215 216 217 216 212 208 208 210 214 219 222 222 221 221 221 222 224 225 226 227 229 234 241 247 251 252 248 240 232 226 221 218 216 215
221 222 223 224 225 226 227 227 226 225 223 220 218 217 217 217 219 220 220 220 219 218 216 212 209 208 209 211 213 213 209 204 201 199 199 199 197 194 195 187 192 201 178 180 230 242 228 228 228 226 222 220 219 218 216 212 211 213 214 213 212 212 213 214 214 214 213 214 214 214 215 216 214 210 204 204 207 211 214 219 222 223 223 225 226 228 230 231 232 236 241 248 253 256 256 251 244 233 222 210 201 195 193
222 222 223 223 225 226 226 226 226 225 223 220 217 216 216 217 219 220 220 220 219 219 218 216 212 209 207 209 213 214 213 209 206 204 203 202 195 186 187 199 211 206 193 177 195 231 225 217 221 225 224 221 218 217 216 213 212 212 213 212 211 211 211 212 213 212 212 212 212 212 213 214 213 209 203 203 205 208 210 213 216 219 221 223 226 230 233 235 238 242 248 254 257 257 254 246 236 221 203 188 179 175 175
224 224 223 224 225 225 226 226 225 224 224 222 219 216 216 217 219 220 221 221 221 220 219 217 214 211 209 210 213 214 213 211 209 207 206 204 200 196 198 198 204 210 207 195 213 231 218 188 200 215 224 219 216 215 215 214 213 212 211 211 210 208 208 209 210 211 211 211 211 211 212 212 212 209 205 204 205 206 207 208 210 211 212 215 220 226 232 237 241 246 251 255 255 251 244 234 218 198 181 172 168 169 169
225 225 225 225 225 225 226 226 226 225 224 223 221 219 217 218 219 221 222 223 223 222 222 220 217 214 212 212 213 214 214 212 211 210 209 208 206 205 206 203 193 186 203 216 230 238 222 165 162 203 222 214 210 211 214 213 212 211 211 210 209 207 206 207 208 210 210 210 210 210 211 212 211 210 207 206 205 205 206 206 207 208 208 210 215 222 229 236 241 246 248 247 244 238 227 211 193 180 172 169 170 171 172
226 226 226 227 227 227 228 228 228 227 225 225 224 222 220 219 220 221 223 224 224 225 224 224 222 220 218 217 215 215 214 213 212 212 211 211 210 209 210 212 211 207 208 209 220 227 198 163 156 181 217 204 204 207 211 211 212 212 211 211 210 208 207 207 208 210 209 208 207 208 210 211 211 210 209 207 206 206 207 208 208 209 209 211 216 222 229 235 240 241 239 236 230 221 208 192 183 178 176 176 177 178 179
227 227 227 228 229 229 229 230 230 230 229 228 227 226 224 222 220 221 222 224 225 226 227 227 227 226 224 222 220 218 218 216 213 212 213 213 213 213 214 216 219 222 226 227 227 205 153 141 159 176 144 183 202 207 210 211 212 212 212 212 211 209 208 208 209 210 209 207 206 207 209 210 211 211 210 209 209 208 209 209 210 210 211 214 219 225 230 233 233 231 230 227 220 209 197 188 185 184 185 185 187 189 191
229 229 229 230 231 231 232 232 233 233 233 232 231 229 227 224 222 221 223 225 227 228 229 229 230 230 228 227 226 225 224 221 217 213 211 214 216 217 217 219 224 230 236 237 236 225 185 167 179 172 127 132 212 216 212 213 213 212 212 213 212 211 209 209 209 210 209 208 206 206 207 210 211 211 211 210 209 210 210 211 211 211 212 214 217 220 221 219 218 219 222 222 216 205 196 192 191 193 193 195 196 198 200
231 231 231 232 233 233 234 235 235 236 236 236 234 232 230 227 225 223 224 226 229 230 230 231 232 233 233 234 232 230 229 229 225 218 212 213 219 221 220 222 227 233 240 244 244 241 234 215 204 198 160 158 171 213 222 217 214 213 213 213 212 212 210 210 211 212 211 209 206 205 207 209 210 210 210 209 209 209 209 210 211 211 210 210 210 209 209 208 207 210 215 217 214 207 202 199 198 198 199 200 201 203 206
233 233 233 233 234 235 236 236 237 238 239 239 238 236 233 230 227 225 225 227 229 231 232 233 234 235 236 241 241 237 234 235 234 227 217 214 221 226 224 225 228 232 238 244 247 250 255 253 248 241 217 166 149 156 193 218 214 213 214 214 213 211 211 211 212 213 212 210 207 206 208 208 208 208 208 208 207 207 207 208 208 207 206 204 204 205 205 204 204 206 209 212 214 214 211 210 208 206 204 204 206 208 211